Weather reports worldwide

Advertisment
Pershore, United Kingdom (3529): temperature & dewpoint: 21.04.2017 00:00:00 - 27.04.2017 00:00:00 (BST)Pershore, United Kingdom (3529): temperature -20cm & temperature -100cm: 21.04.2017 00:00:00 - 27.04.2017 00:00:00 (BST)Pershore, United Kingdom (3529): wind speed & gusts: 21.04.2017 00:00:00 - 27.04.2017 00:00:00 (BST)Pershore, United Kingdom (3529): wind direction: 21.04.2017 00:00:00 - 27.04.2017 00:00:00 (BST)Pershore, United Kingdom (3529): reduced air pressure: 21.04.2017 00:00:00 - 27.04.2017 00:00:00 (BST)Pershore, United Kingdom (3529): visibility: 21.04.2017 00:00:00 - 27.04.2017 00:00:00 (BST)Pershore, United Kingdom (3529): precipitation: 21.04.2017 00:00:00 - 27.04.2017 00:00:00 (BST)
Date & Time tt [°C] td [°C] tt -20cm [°C] tt -100cm [°C] ff [km/h] ff [kn] fx [km/h] fx [kn] dd ppp [hPa] vv [km] rr [mm]
27.04.2017 00:00:00 0,1 -1,0 - - 4 2 - - S 1022,4 20 0,0
26.04.2017 23:00:00 0,7 -0,6 - - 8 4 - - ESE 1022,4 20 0,0
26.04.2017 22:00:00 2,2 -0,1 - - 2 1 - - NW 1022,0 25 0,0
26.04.2017 21:00:00 5,2 0,7 - - 4 2 - - ENE 1021,5 40 0,0
26.04.2017 20:00:00 6,5 0,2 - - 4 2 - - ENE 1020,9 45 0,0
26.04.2017 19:00:00 8,0 -0,5 - - 13 7 - - ENE 1020,4 50 0,0
26.04.2017 18:00:00 8,3 0,5 - - 9 5 - - ENE 1020,4 35 0,0
26.04.2017 17:00:00 7,1 0,8 - - 9 5 - - ENE 1020,4 30 0,0
26.04.2017 16:00:00 7,9 1,2 - - 8 4 - - NNE 1020,7 35 0,0
26.04.2017 15:00:00 8,3 -0,2 - - 13 7 - - N 1020,5 25 0,0
26.04.2017 14:00:00 9,6 1,5 - - 13 7 - - NNW 1020,3 28 0,0
26.04.2017 13:00:00 9,1 0,1 - - 9 5 - - NNE 1020,4 40 0,0
26.04.2017 12:00:00 7,6 0,2 - - 16 9 - - NNW 1020,7 24 0,0
26.04.2017 11:00:00 7,0 0,0 - - 15 8 - - N 1020,5 28 0,0
26.04.2017 10:00:00 6,0 0,1 10,7 10,5 18 10 - - N 1020,5 35 0,0
26.04.2017 09:00:00 5,9 1,5 - - 18 10 - - NNW 1020,3 18 0,0
26.04.2017 08:00:00 4,2 0,8 - - 15 8 - - NW 1020,0 23 0,0
26.04.2017 07:00:00 2,7 0,3 - - 11 6 - - NW 1019,7 30 0,0
26.04.2017 06:00:00 2,2 0,2 - - 11 6 - - NW 1019,2 35 0,0
26.04.2017 05:00:00 1,8 0,0 - - 11 6 - - NNW 1018,7 30 0,2
26.04.2017 04:00:00 2,5 0,8 - - 13 7 - - NNW 1018,6 35 0,0
26.04.2017 03:00:00 1,8 1,1 - - 9 5 - - NNW 1018,7 45 0,0
26.04.2017 02:00:00 0,4 0,2 - - 8 4 - - NW 1018,8 30 0,0
26.04.2017 01:00:00 -0,9 -1,6 - - 8 4 - - N 1018,8 20 0,0
26.04.2017 00:00:00 0,1 -0,5 - - 4 2 - - NW 1018,4 30 0,0
25.04.2017 23:00:00 0,2 -0,8 - - 5 3 - - WNW 1018,0 30 0,0
25.04.2017 22:00:00 1,4 0,4 - - 4 2 - - WSW 1017,6 50 0,0
25.04.2017 21:00:00 2,5 1,1 - - 4 2 - - W 1017,2 50 0,0
25.04.2017 20:00:00 3,8 1,5 - - 5 3 - - N 1016,6 50 0,0
25.04.2017 19:00:00 3,8 2,2 - - 11 6 - - NNE 1016,4 35 0,8
25.04.2017 18:00:00 10,6 -1,3 - - 22 12 - - NNW 1014,8 40 0,0
25.04.2017 17:00:00 10,3 0,5 - - 15 8 - - NNW 1015,1 40 0,0
25.04.2017 16:00:00 7,4 1,9 - - 18 10 52 28 NNW 1015,7 26 0,0
25.04.2017 15:00:00 7,7 -1,0 - - 4 2 - - N 1015,3 45 0,0
25.04.2017 14:00:00 11,4 -1,1 - - 15 8 - - NW 1015,2 25 0,0
25.04.2017 13:00:00 11,0 -0,8 - - 18 10 - - NNW 1015,6 26 0,0
25.04.2017 12:00:00 10,5 -0,8 - - 21 11 - - NNW 1015,8 35 0,0
25.04.2017 11:00:00 9,7 -0,7 - - 18 10 - - NW 1015,9 45 0,0
25.04.2017 10:00:00 7,4 -1,0 11,0 10,4 15 8 - - NNW 1015,8 27 0,0
25.04.2017 09:00:00 6,1 0,7 - - 16 9 - - NNW 1015,7 35 0,0
25.04.2017 08:00:00 3,8 0,7 - - 9 5 - - WNW 1015,5 27 0,0
25.04.2017 07:00:00 1,1 -1,8 - - 5 3 - - SW 1015,0 30 0,0
25.04.2017 06:00:00 0,2 -2,6 - - 4 2 - - WSW 1014,4 35 0,0
25.04.2017 05:00:00 0,2 -3,2 - - 5 3 - - SW 1014,1 30 0,0
25.04.2017 04:00:00 0,4 -3,5 - - 5 3 - - SW 1014,2 35 0,0
25.04.2017 03:00:00 0,9 -3,6 - - 5 3 - - W 1014,4 30 0,0
25.04.2017 02:00:00 1,6 -3,7 - - 11 6 - - W 1015,0 40 0,0
25.04.2017 01:00:00 2,2 -3,7 - - 11 6 - - W 1015,5 35 0,0
25.04.2017 00:00:00 1,9 -3,5 - - 13 7 - - WNW 1015,8 30 0,0
24.04.2017 23:00:00 3,7 -3,6 - - 21 11 - - NW 1015,9 35 0,0
24.04.2017 22:00:00 5,2 -3,8 - - 26 14 - - NW 1015,8 40 0,0
24.04.2017 21:00:00 6,0 -3,4 - - 18 10 - - NW 1015,3 40 0,0
24.04.2017 20:00:00 7,0 -2,1 - - 28 15 - - NW 1015,0 45 0,0
24.04.2017 19:00:00 8,7 0,7 - - 24 13 - - NW 1014,8 50 0,0
24.04.2017 18:00:00 9,0 4,7 - - 16 9 - - NNW 1014,8 40 0,0
24.04.2017 17:00:00 10,3 6,4 - - 18 10 - - NW 1014,4 40 0,2
24.04.2017 16:00:00 9,5 7,3 - - 16 9 - - NNW 1014,6 13 0,2
24.04.2017 15:00:00 12,9 7,3 - - 21 11 - - W 1014,4 40 0,6
24.04.2017 14:00:00 12,0 7,8 - - 15 8 - - WNW 1015,2 30 0,0
24.04.2017 13:00:00 12,4 7,3 - - 13 7 - - W 1015,9 40 0,0
24.04.2017 12:00:00 12,4 8,0 - - 13 7 - - W 1016,4 35 0,0
24.04.2017 11:00:00 11,2 7,9 - - 13 7 - - WSW 1017,2 28 0,0
24.04.2017 10:00:00 9,7 7,6 11,7 10,4 13 7 - - SW 1017,6 30 0,0
24.04.2017 09:00:00 8,9 6,2 - - 9 5 - - SW 1017,9 12 0,0
24.04.2017 08:00:00 7,9 5,3 - - 9 5 - - SSW 1018,6 35 0,0
24.04.2017 07:00:00 7,1 4,6 - - 8 4 - - SW 1018,9 24 0,0
24.04.2017 06:00:00 6,1 4,2 - - 5 3 - - SW 1019,1 35 0,0
24.04.2017 05:00:00 6,5 4,2 - - 8 4 - - SSW 1019,5 50 0,0
24.04.2017 04:00:00 5,2 3,9 - - 4 2 - - WSW 1020,3 25 0,0
24.04.2017 03:00:00 5,4 3,7 - - 5 3 - - SW 1020,6 30 0,0
24.04.2017 02:00:00 5,0 3,6 - - 8 4 - - SW 1021,5 28 0,0
24.04.2017 01:00:00 3,3 2,0 - - 4 2 - - SW 1022,1 29 0,0
24.04.2017 00:00:00 4,7 3,1 - - 2 1 - - W 1022,4 35 0,0
23.04.2017 23:00:00 5,8 3,0 - - 4 2 - - SW 1022,7 45 0,0
23.04.2017 22:00:00 7,8 4,3 - - 5 3 - - NNW 1023,2 35 0,0
23.04.2017 21:00:00 11,3 5,0 - - 9 5 - - WSW 1022,9 40 0,0
23.04.2017 20:00:00 13,7 3,5 - - 9 5 - - WSW 1022,7 45 0,0
23.04.2017 19:00:00 15,9 3,8 - - 13 7 - - W 1023,1 40 0,0
23.04.2017 18:00:00 16,1 5,1 - - 11 6 - - NW 1023,5 35 0,0
23.04.2017 17:00:00 16,0 4,9 - - 15 8 - - WNW 1024,0 23 0,0
23.04.2017 16:00:00 16,1 4,7 - - 9 5 - - W 1024,8 45 0,0
23.04.2017 15:00:00 13,9 3,5 - - 8 4 - - SW 1025,5 50 0,0
23.04.2017 14:00:00 14,1 4,9 - - 8 4 - - SW 1026,4 40 0,0
23.04.2017 13:00:00 12,8 5,0 - - 8 4 - - W 1027,1 40 0,0
23.04.2017 12:00:00 11,5 3,1 - - 4 2 - - W 1027,8 30 0,0
23.04.2017 11:00:00 11,1 4,4 - - 5 3 - - SW 1028,1 18 0,0
23.04.2017 10:00:00 9,0 3,9 - - 4 2 - - W 1028,4 18 0,0
23.04.2017 09:00:00 6,4 3,5 - - 5 3 - - SSW 1028,6 25 0,0
23.04.2017 08:00:00 4,1 3,1 - - 2 1 - - W 1028,8 15 0,0
23.04.2017 07:00:00 0,6 0,1 - - 2 1 - - ENE 1028,8 16 0,0
23.04.2017 06:00:00 -0,4 -1,1 - - 4 2 - - WSW 1028,7 14 0,0
23.04.2017 05:00:00 -0,1 -1,0 - - 5 3 - - E 1028,7 16 0,0
23.04.2017 04:00:00 0,4 -0,8 - - 5 3 - - NW 1028,9 20 0,0
23.04.2017 03:00:00 1,6 0,1 - - 5 3 - - ENE 1028,9 30 0,0
23.04.2017 02:00:00 2,3 0,9 - - 2 1 - - N 1029,4 24 0,0
23.04.2017 01:00:00 3,5 1,7 - - 5 3 - - N 1029,7 29 0,0
23.04.2017 00:00:00 3,4 0,2 - - 8 4 - - NNW 1029,6 45 0,0
22.04.2017 23:00:00 5,5 1,2 - - 4 2 - - N 1029,6 35 0,0
22.04.2017 22:00:00 6,8 1,0 - - 13 7 - - NNW 1029,2 45 0,0
22.04.2017 21:00:00 9,1 1,0 - - 15 8 - - NNW 1028,8 50 0,0
22.04.2017 20:00:00 11,0 1,0 - - 15 8 - - NNW 1028,4 50 0,0
22.04.2017 19:00:00 12,4 1,7 - - 11 6 - - NNW 1028,3 30 0,0
22.04.2017 18:00:00 15,0 1,6 - - 15 8 - - N 1028,3 45 0,0
22.04.2017 17:00:00 14,9 0,4 - - 16 9 - - N 1028,4 30 0,0
22.04.2017 16:00:00 15,9 2,3 - - 15 8 - - NNW 1028,7 35 0,0
22.04.2017 15:00:00 15,8 1,9 - - 13 7 - - NW 1029,1 30 0,0
22.04.2017 14:00:00 15,2 3,9 - - 11 6 - - WNW 1029,6 30 0,0
22.04.2017 13:00:00 14,1 3,7 - - 11 6 - - N 1030,1 35 0,0
22.04.2017 12:00:00 13,9 3,8 - - 15 8 - - NNW 1030,7 18 0,0
22.04.2017 11:00:00 12,6 3,7 - - 18 10 - - NNW 1030,9 30 0,0
22.04.2017 10:00:00 10,7 4,3 11,0 10,2 16 9 - - NNW 1031,0 35 0,0
22.04.2017 09:00:00 10,8 4,4 - - 18 10 - - NNW 1031,0 17 0,0
22.04.2017 08:00:00 9,4 4,9 - - 8 4 - - NNW 1031,0 27 0,0
22.04.2017 07:00:00 7,1 4,9 - - 4 2 - - N 1030,7 40 0,0
22.04.2017 06:00:00 6,9 4,8 - - 4 2 - - N 1030,3 45 0,0
22.04.2017 05:00:00 8,3 5,7 - - 5 3 - - WNW 1030,1 45 0,0
22.04.2017 04:00:00 9,6 6,5 - - 9 5 - - NNW 1030,3 50 0,0
22.04.2017 03:00:00 9,2 7,0 - - 8 4 - - W 1030,3 29 0,0
22.04.2017 02:00:00 9,8 6,9 - - 8 4 - - WSW 1030,6 30 0,0
22.04.2017 01:00:00 10,3 6,9 - - 8 4 - - W 1030,9 30 0,0
22.04.2017 00:00:00 9,9 6,9 - - 8 4 - - WNW 1031,0 25 0,0
21.04.2017 23:00:00 10,4 7,0 - - 4 2 - - W 1031,2 40 0,0
21.04.2017 22:00:00 10,2 6,8 - - 4 2 - - NNW 1031,1 40 0,0
21.04.2017 21:00:00 10,9 7,0 - - 5 3 - - W 1031,0 30 0,0
21.04.2017 20:00:00 11,3 7,2 - - 5 3 - - W 1030,9 40 0,0
21.04.2017 19:00:00 12,1 6,8 - - 8 4 - - WNW 1031,0 40 0,0
21.04.2017 18:00:00 12,9 6,6 - - 13 7 - - WNW 1031,1 24 0,0
21.04.2017 17:00:00 13,1 6,5 - - 13 7 - - WNW 1031,2 40 -
21.04.2017 16:00:00 13,8 6,2 - - 16 9 - - WNW 1031,5 45 0,0
21.04.2017 15:00:00 14,3 8,0 - - 13 7 - - WNW 1031,9 27 0,0
21.04.2017 14:00:00 14,2 7,6 - - 13 7 - - W 1032,4 22 0,0
21.04.2017 13:00:00 13,6 7,7 - - 13 7 - - W 1032,8 30 0,0
21.04.2017 12:00:00 12,4 8,5 - - 8 4 - - WSW 1033,4 21 0,0
21.04.2017 11:00:00 11,4 8,4 - - 8 4 - - SW 1033,7 29 0,0
21.04.2017 10:00:00 10,3 7,8 11,2 10,2 8 4 - - WSW 1033,8 20 0,0
21.04.2017 09:00:00 9,5 7,9 - - 4 2 - - WSW 1033,7 13 0,0
21.04.2017 08:00:00 7,7 7,5 - - 0 0 - - N 1033,6 8 0,0
21.04.2017 07:00:00 6,6 6,3 - - 0 0 - - N 1033,5 7 0,0
21.04.2017 06:00:00 5,9 5,7 - - 2 1 - - N 1033,6 7 0,0
21.04.2017 05:00:00 4,7 4,4 - - 2 1 - - WSW 1033,7 7 0,0
21.04.2017 04:00:00 3,3 2,8 - - 0 0 - - N 1033,9 8 0,0
21.04.2017 03:00:00 3,7 3,1 - - 4 2 - - SW 1034,4 9 0,0
21.04.2017 02:00:00 4,1 3,4 - - 2 1 - - S 1034,6 8 0,0
21.04.2017 01:00:00 4,8 3,3 - - 2 1 - - S 1034,8 16 0,0
21.04.2017 00:00:00 6,1 4,6 - - 2 1 - - WSW 1035,0 25 0,0

tt = temperature
td = dewpoint
tt -20cm = temperature -20cm
tt -100cm = temperature -100cm
ff = wind speed
fx = gusts
dd = wind direction
ppp = reduced air pressure
vv = visibility
rr = precipitation

Next stations